Time,TemperatureF,DewpointF,PressureIn,WindDirection,WindDirectionDegrees,WindSpeedMPH,WindSpeedGustMPH,Humidity,HourlyPrecipIn,Conditions,Clouds,dailyrainin,SoftwareType,DateUTC
2013-01-03 00:00:00,40.5,9.9,30.50,NW,325,4.0,8.0,28,0.00,,,0.00,Wunderground v.1.15,2013-01-03 08:00:00,
2013-01-03 00:05:00,40.5,9.9,30.50,NNW,329,5.0,10.0,28,0.00,,,0.00,Wunderground v.1.15,2013-01-03 08:05:00,
2013-01-03 00:15:00,41.3,10.6,30.50,NNW,329,5.0,6.0,28,0.00,,,0.00,Wunderground v.1.15,2013-01-03 08:15:00,
2013-01-03 00:20:00,41.2,9.7,30.50,NNW,342,4.0,4.0,27,0.00,,,0.00,Wunderground v.1.15,2013-01-03 08:20:00,
2013-01-03 00:30:00,41.3,10.6,30.50,North,350,4.0,10.0,28,0.00,,,0.00,Wunderground v.1.15,2013-01-03 08:30:00,
2013-01-03 00:35:00,41.8,10.2,30.50,NW,314,5.0,13.0,27,0.00,,,0.00,Wunderground v.1.15,2013-01-03 08:35:00,
2013-01-03 00:45:00,42.0,10.4,30.50,NNW,341,6.0,13.0,27,0.00,,,0.00,Wunderground v.1.15,2013-01-03 08:45:00,
2013-01-03 00:50:00,41.7,10.1,30.50,NNW,338,5.0,13.0,27,0.00,,,0.00,Wunderground v.1.15,2013-01-03 08:50:00,
2013-01-03 01:00:00,41.0,10.3,30.50,NNW,339,4.0,13.0,28,0.00,,,0.00,Wunderground v.1.15,2013-01-03 09:00:00,
2013-01-03 01:05:00,41.6,10.0,30.50,NW,314,5.0,13.0,27,0.00,,,0.00,Wunderground v.1.15,2013-01-03 09:05:00,
2013-01-03 01:10:00,41.9,10.3,30.50,NW,325,6.0,6.0,27,0.00,,,0.00,Wunderground v.1.15,2013-01-03 09:10:00,
2013-01-03 01:15:00,42.1,9.6,30.50,NW,318,6.0,12.0,26,0.00,,,0.00,Wunderground v.1.15,2013-01-03 09:15:00,
2013-01-03 01:25:00,41.8,9.4,30.50,NW,325,4.0,12.0,26,0.00,,,0.00,Wunderground v.1.15,2013-01-03 09:25:00,
2013-01-03 01:30:00,41.3,9.8,30.50,North,2,2.0,2.0,27,0.00,,,0.00,Wunderground v.1.15,2013-01-03 09:30:00,
2013-01-03 01:35:00,40.5,9.9,30.50,North,2,1.0,10.0,28,0.00,,,0.00,Wunderground v.1.15,2013-01-03 09:35:00,
2013-01-03 01:45:00,40.5,9.1,30.50,North,10,0.0,10.0,27,0.00,,,0.00,Wunderground v.1.15,2013-01-03 09:45:00,
2013-01-03 01:50:00,40.7,9.3,30.50,North,11,0.0,10.0,27,0.00,,,0.00,Wunderground v.1.15,2013-01-03 09:50:00,
2013-01-03 02:00:00,40.7,9.3,30.50,NNW,341,0.0,10.0,27,0.00,,,0.00,Wunderground v.1.15,2013-01-03 10:00:00,
2013-01-03 02:05:00,40.8,9.3,30.50,NNE,33,1.0,10.0,27,0.00,,,0.00,Wunderground v.1.15,2013-01-03 10:05:00,
2013-01-03 02:15:00,40.3,9.7,30.50,NE,45,0.0,5.0,28,0.00,,,0.00,Wunderground v.1.15,2013-01-03 10:15:00,
2013-01-03 02:20:00,39.8,9.3,30.50,North,11,0.0,5.0,28,0.00,,,0.00,Wunderground v.1.15,2013-01-03 10:20:00,
2013-01-03 02:30:00,39.6,9.1,30.50,NNE,17,0.0,5.0,28,0.00,,,0.00,Wunderground v.1.15,2013-01-03 10:30:00,
2013-01-03 02:35:00,39.5,9.8,30.50,NNE,17,0.0,5.0,29,0.00,,,0.00,Wunderground v.1.15,2013-01-03 10:35:00,
2013-01-03 02:45:00,39.1,9.5,30.50,NNW,343,1.0,5.0,29,0.00,,,0.00,Wunderground v.1.15,2013-01-03 10:45:00,
2013-01-03 02:50:00,39.1,9.5,30.50,North,2,1.0,1.0,29,0.00,,,0.00,Wunderground v.1.15,2013-01-03 10:50:00,
2013-01-03 03:00:00,39.8,9.3,30.50,NNW,336,4.0,4.0,28,0.00,,,0.00,Wunderground v.1.15,2013-01-03 11:00:00,
2013-01-03 03:05:00,40.2,9.6,30.50,NNW,339,5.0,5.0,28,0.00,,,0.00,Wunderground v.1.15,2013-01-03 11:05:00,
2013-01-03 03:15:00,40.3,9.7,30.50,NNW,330,6.0,12.0,28,0.00,,,0.00,Wunderground v.1.15,2013-01-03 11:15:00,
2013-01-03 03:20:00,39.8,10.1,30.50,North,354,4.0,4.0,29,0.00,,,0.00,Wunderground v.1.15,2013-01-03 11:20:00,
2013-01-03 03:30:00,38.5,9.7,30.50,North,3,1.0,12.0,30,0.00,,,0.00,Wunderground v.1.15,2013-01-03 11:30:00,
2013-01-03 03:35:00,38.2,9.4,30.50,NNW,335,3.0,12.0,30,0.00,,,0.00,Wunderground v.1.15,2013-01-03 11:35:00,
2013-01-03 03:45:00,39.0,10.1,30.50,NNW,335,6.0,12.0,30,0.00,,,0.00,Wunderground v.1.15,2013-01-03 11:45:00,
2013-01-03 03:50:00,38.8,10.0,30.51,NNW,331,6.0,6.0,30,0.00,,,0.00,Wunderground v.1.15,2013-01-03 11:50:00,
2013-01-03 03:55:00,38.7,9.9,30.51,NNW,329,5.0,12.0,30,0.00,,,0.00,Wunderground v.1.15,2013-01-03 11:55:00,
2013-01-03 04:00:00,39.1,10.2,30.51,NNW,335,5.0,12.0,30,0.00,,,0.00,Wunderground v.1.15,2013-01-03 12:00:00,
2013-01-03 04:05:00,40.0,10.3,30.52,NNW,346,7.0,15.0,29,0.00,,,0.00,Wunderground v.1.15,2013-01-03 12:05:00,
2013-01-03 04:15:00,40.5,9.9,30.52,WNW,289,10.0,10.0,28,0.00,,,0.00,Wunderground v.1.15,2013-01-03 12:15:00,
2013-01-03 04:20:00,40.6,10.0,30.53,North,1,10.0,10.0,28,0.00,,,0.00,Wunderground v.1.15,2013-01-03 12:20:00,
2013-01-03 04:25:00,41.0,10.3,30.52,WNW,298,9.0,15.0,28,0.00,,,0.00,Wunderground v.1.15,2013-01-03 12:25:00,
2013-01-03 04:35:00,39.1,9.5,30.53,NE,36,3.0,23.0,29,0.00,,,0.00,Wunderground v.1.15,2013-01-03 12:35:00,
2013-01-03 04:45:00,38.0,10.0,30.53,NE,36,1.0,23.0,31,0.00,,,0.00,Wunderground v.1.15,2013-01-03 12:45:00,
2013-01-03 04:50:00,38.2,10.2,30.53,NNE,31,1.0,1.0,31,0.00,,,0.00,Wunderground v.1.15,2013-01-03 12:50:00,
2013-01-03 05:00:00,39.4,9.7,30.54,North,358,4.0,23.0,29,0.00,,,0.00,Wunderground v.1.15,2013-01-03 13:00:00,
2013-01-03 05:10:00,39.7,10.0,30.53,North,10,2.0,2.0,29,0.00,,,0.00,Wunderground v.1.15,2013-01-03 13:10:00,
2013-01-03 05:20:00,39.5,9.8,30.53,NNW,343,2.0,2.0,29,0.00,,,0.00,Wunderground v.1.15,2013-01-03 13:20:00,
2013-01-03 05:30:00,38.9,9.3,30.53,North,350,1.0,1.0,29,0.00,,,0.00,Wunderground v.1.15,2013-01-03 13:30:00,
2013-01-03 05:35:00,38.1,9.4,30.53,North,8,0.0,8.0,30,0.00,,,0.00,Wunderground v.1.15,2013-01-03 13:35:00,
2013-01-03 05:45:00,36.5,9.4,30.53,NNE,18,0.0,8.0,32,0.00,,,0.00,Wunderground v.1.15,2013-01-03 13:45:00,
2013-01-03 05:50:00,36.0,8.9,30.53,NNE,24,1.0,1.0,32,0.00,,,0.00,Wunderground v.1.15,2013-01-03 13:50:00,
2013-01-03 06:00:00,35.2,8.9,30.54,NNE,31,1.0,8.0,33,0.00,,,0.00,Wunderground v.1.15,2013-01-03 14:00:00,
2013-01-03 06:10:00,35.7,9.4,30.54,NNE,25,1.0,5.0,33,0.00,,,0.00,Wunderground v.1.15,2013-01-03 14:10:00,
2013-01-03 06:15:00,35.8,9.5,30.54,NNE,25,1.0,5.0,33,0.00,,,0.00,Wunderground v.1.15,2013-01-03 14:15:00,
2013-01-03 06:20:00,36.1,9.0,30.54,NNE,25,1.0,1.0,32,0.00,,,0.00,Wunderground v.1.15,2013-01-03 14:20:00,
2013-01-03 06:30:00,37.1,9.2,30.54,North,354,1.0,1.0,31,0.00,,,0.00,Wunderground v.1.15,2013-01-03 14:30:00,
2013-01-03 06:35:00,37.5,9.6,30.54,NNE,19,1.0,2.0,31,0.00,,,0.00,Wunderground v.1.15,2013-01-03 14:35:00,
2013-01-03 06:45:00,36.1,9.0,30.55,NE,38,1.0,5.0,32,0.00,,,0.00,Wunderground v.1.15,2013-01-03 14:45:00,
2013-01-03 06:55:00,35.3,9.0,30.55,NE,38,0.0,5.0,33,0.00,,,0.00,Wunderground v.1.15,2013-01-03 14:55:00,
2013-01-03 07:00:00,35.5,9.2,30.55,North,358,0.0,5.0,33,0.00,,,0.00,Wunderground v.1.15,2013-01-03 15:00:00,
2013-01-03 07:10:00,36.4,9.3,30.56,North,357,0.0,6.0,32,0.00,,,0.00,Wunderground v.1.15,2013-01-03 15:10:00,
2013-01-03 07:15:00,37.1,9.9,30.56,NNW,347,1.0,6.0,32,0.00,,,0.00,Wunderground v.1.15,2013-01-03 15:15:00,
2013-01-03 07:20:00,37.7,9.7,30.56,North,352,1.0,1.0,31,0.00,,,0.00,Wunderground v.1.15,2013-01-03 15:20:00,
2013-01-03 07:30:00,38.6,9.8,30.56,NNW,343,2.0,2.0,30,0.00,,,0.00,Wunderground v.1.15,2013-01-03 15:30:00,
2013-01-03 07:35:00,38.9,10.1,30.56,North,2,2.0,8.0,30,0.00,,,0.00,Wunderground v.1.15,2013-01-03 15:35:00,
2013-01-03 07:45:00,39.5,9.8,30.56,North,350,2.0,8.0,29,0.00,,,0.00,Wunderground v.1.15,2013-01-03 15:45:00,
2013-01-03 07:50:00,39.7,10.0,30.57,North,352,2.0,8.0,29,0.00,,,0.00,Wunderground v.1.15,2013-01-03 15:50:00,
2013-01-03 08:00:00,40.1,9.6,30.57,NNW,344,1.0,8.0,28,0.00,,,0.00,Wunderground v.1.15,2013-01-03 16:00:00,
2013-01-03 08:05:00,40.4,9.0,30.57,NNW,346,1.0,8.0,27,0.00,,,0.00,Wunderground v.1.15,2013-01-03 16:05:00,
2013-01-03 08:15:00,40.7,9.3,30.57,NNW,327,3.0,7.0,27,0.00,,,0.00,Wunderground v.1.15,2013-01-03 16:15:00,
2013-01-03 08:20:00,40.9,9.4,30.57,NNW,327,4.0,7.0,27,0.00,,,0.00,Wunderground v.1.15,2013-01-03 16:20:00,
2013-01-03 08:30:00,41.3,8.9,30.57,NNW,333,2.0,7.0,26,0.00,,,0.00,Wunderground v.1.15,2013-01-03 16:30:00,
2013-01-03 08:35:00,41.4,9.0,30.57,NW,322,3.0,9.0,26,0.00,,,0.00,Wunderground v.1.15,2013-01-03 16:35:00,
2013-01-03 08:45:00,41.8,9.4,30.58,NW,323,5.0,9.0,26,0.00,,,0.00,Wunderground v.1.15,2013-01-03 16:45:00,
2013-01-03 08:50:00,41.9,9.5,30.58,NNW,331,5.0,5.0,26,0.00,,,0.00,Wunderground v.1.15,2013-01-03 16:50:00,
2013-01-03 09:00:00,42.3,8.9,30.59,NNW,330,5.0,9.0,25,0.00,,,0.00,Wunderground v.1.15,2013-01-03 17:00:00,
2013-01-03 09:05:00,42.7,9.3,30.59,West,280,6.0,10.0,25,0.00,,,0.00,Wunderground v.1.15,2013-01-03 17:05:00,
2013-01-03 09:15:00,43.5,7.1,30.59,NNW,327,9.0,10.0,22,0.00,,,0.00,Wunderground v.1.15,2013-01-03 17:15:00,
2013-01-03 09:20:00,43.6,7.2,30.59,NNW,347,10.0,10.0,22,0.00,,,0.00,Wunderground v.1.15,2013-01-03 17:20:00,
2013-01-03 09:30:00,43.7,6.2,30.60,NW,310,11.0,12.0,21,0.00,,,0.00,Wunderground v.1.15,2013-01-03 17:30:00,
2013-01-03 09:35:00,43.8,5.3,30.60,NW,326,11.0,17.0,20,0.00,,,0.00,Wunderground v.1.15,2013-01-03 17:35:00,
2013-01-03 09:40:00,44.1,4.4,30.60,NW,306,11.0,11.0,19,0.00,,,0.00,Wunderground v.1.15,2013-01-03 17:40:00,
2013-01-03 09:45:00,44.0,4.3,30.60,WNW,302,10.0,17.0,19,0.00,,,0.00,Wunderground v.1.15,2013-01-03 17:45:00,
2013-01-03 09:55:00,44.2,4.5,30.59,NW,322,10.0,17.0,19,0.00,,,0.00,Wunderground v.1.15,2013-01-03 17:55:00,
2013-01-03 10:00:00,44.3,4.6,30.60,NW,316,10.0,17.0,19,0.00,,,0.00,Wunderground v.1.15,2013-01-03 18:00:00,
2013-01-03 10:05:00,44.6,3.6,30.60,WNW,301,10.0,20.0,18,0.00,,,0.00,Wunderground v.1.15,2013-01-03 18:05:00,
2013-01-03 10:15:00,44.8,5.0,30.60,WNW,293,10.0,20.0,19,0.00,,,0.00,Wunderground v.1.15,2013-01-03 18:15:00,
2013-01-03 10:20:00,45.0,4.0,30.60,NNW,337,10.0,10.0,18,0.00,,,0.00,Wunderground v.1.15,2013-01-03 18:20:00,
2013-01-03 10:30:00,45.6,4.5,30.59,WNW,293,9.0,20.0,18,0.00,,,0.00,Wunderground v.1.15,2013-01-03 18:30:00,
2013-01-03 10:35:00,46.0,4.8,30.59,WNW,295,10.0,20.0,18,0.00,,,0.00,Wunderground v.1.15,2013-01-03 18:35:00,
2013-01-03 10:40:00,46.0,4.8,30.59,NW,323,10.0,10.0,18,0.00,,,0.00,Wunderground v.1.15,2013-01-03 18:40:00,
2013-01-03 10:50:00,45.7,4.5,30.58,WNW,291,11.0,17.0,18,0.00,,,0.00,Wunderground v.1.15,2013-01-03 18:50:00,
2013-01-03 11:00:00,46.1,4.9,30.58,WNW,302,10.0,10.0,18,0.00,,,0.00,Wunderground v.1.15,2013-01-03 19:00:00,
2013-01-03 11:05:00,45.9,4.7,30.58,WNW,301,10.0,11.0,18,0.00,,,0.00,Wunderground v.1.15,2013-01-03 19:05:00,
2013-01-03 11:15:00,46.0,6.0,30.58,NNW,331,11.0,18.0,19,0.00,,,0.00,Wunderground v.1.15,2013-01-03 19:15:00,
2013-01-03 12:00:00,47.4,4.7,30.55,WNW,293,11.0,23.0,17,0.00,,,0.00,Wunderground v.1.15,2013-01-03 20:00:00,
2013-01-03 12:05:00,47.5,4.8,30.55,West,281,12.0,23.0,17,0.00,,,0.00,Wunderground v.1.15,2013-01-03 20:05:00,
2013-01-03 12:15:00,47.6,4.9,30.54,WNW,291,12.0,21.0,17,0.00,,,0.00,Wunderground v.1.15,2013-01-03 20:15:00,
2013-01-03 12:20:00,47.6,4.9,30.54,WNW,295,12.0,12.0,17,0.00,,,0.00,Wunderground v.1.15,2013-01-03 20:20:00,
2013-01-03 12:30:00,47.6,6.1,30.54,WNW,298,13.0,13.0,18,0.00,,,0.00,Wunderground v.1.15,2013-01-03 20:30:00,
2013-01-03 12:35:00,47.6,6.1,30.54,NNW,327,12.0,14.0,18,0.00,,,0.00,Wunderground v.1.15,2013-01-03 20:35:00,
2013-01-03 12:45:00,47.5,6.0,30.53,NW,319,12.0,21.0,18,0.00,,,0.00,Wunderground v.1.15,2013-01-03 20:45:00,
2013-01-03 12:50:00,47.7,6.2,30.53,NW,326,11.0,21.0,18,0.00,,,0.00,Wunderground v.1.15,2013-01-03 20:50:00,
2013-01-03 13:00:00,47.9,6.4,30.53,NW,304,12.0,21.0,18,0.00,,,0.00,Wunderground v.1.15,2013-01-03 21:00:00,
2013-01-03 13:05:00,47.9,5.1,30.53,NW,308,12.0,21.0,17,0.00,,,0.00,Wunderground v.1.15,2013-01-03 21:05:00,
2013-01-03 13:15:00,47.9,5.1,30.53,NNW,327,13.0,20.0,17,0.00,,,0.00,Wunderground v.1.15,2013-01-03 21:15:00,
2013-01-03 13:20:00,47.8,5.0,30.53,NW,316,13.0,20.0,17,0.00,,,0.00,Wunderground v.1.15,2013-01-03 21:20:00,
2013-01-03 13:30:00,48.3,5.4,30.53,NW,318,12.0,20.0,17,0.00,,,0.00,Wunderground v.1.15,2013-01-03 21:30:00,
2013-01-03 13:35:00,48.2,5.3,30.53,NW,310,13.0,22.0,17,0.00,,,0.00,Wunderground v.1.15,2013-01-03 21:35:00,
2013-01-03 13:45:00,48.2,5.3,30.53,NW,311,13.0,22.0,17,0.00,,,0.00,Wunderground v.1.15,2013-01-03 21:45:00,
2013-01-03 13:50:00,48.4,4.2,30.53,West,281,12.0,22.0,16,0.00,,,0.00,Wunderground v.1.15,2013-01-03 21:50:00,
2013-01-03 14:00:00,48.8,4.5,30.53,NW,320,11.0,22.0,16,0.00,,,0.00,Wunderground v.1.15,2013-01-03 22:00:00,
2013-01-03 14:05:00,48.5,2.9,30.53,NNW,330,12.0,22.0,15,0.00,,,0.00,Wunderground v.1.15,2013-01-03 22:05:00,
2013-01-03 14:15:00,48.5,4.3,30.53,WNW,300,11.0,21.0,16,0.00,,,0.00,Wunderground v.1.15,2013-01-03 22:15:00,
2013-01-03 14:20:00,48.3,4.1,30.53,NNW,329,11.0,21.0,16,0.00,,,0.00,Wunderground v.1.15,2013-01-03 22:20:00,
2013-01-03 14:30:00,48.1,3.9,30.54,NNW,331,12.0,21.0,16,0.00,,,0.00,Wunderground v.1.15,2013-01-03 22:30:00,
2013-01-03 14:35:00,47.8,5.0,30.54,NNW,329,11.0,21.0,17,0.00,,,0.00,Wunderground v.1.15,2013-01-03 22:35:00,
2013-01-03 14:45:00,47.4,4.7,30.54,NW,319,11.0,20.0,17,0.00,,,0.00,Wunderground v.1.15,2013-01-03 22:45:00,
2013-01-03 14:50:00,47.5,4.8,30.54,NNW,335,11.0,11.0,17,0.00,,,0.00,Wunderground v.1.15,2013-01-03 22:50:00,
2013-01-03 14:55:00,47.7,4.9,30.54,NW,321,11.0,16.0,17,0.00,,,0.00,Wunderground v.1.15,2013-01-03 22:55:00,
2013-01-03 15:05:00,47.4,4.7,30.54,NNW,334,12.0,21.0,17,0.00,,,0.00,Wunderground v.1.15,2013-01-03 23:05:00,
2013-01-03 15:15:00,47.5,4.8,30.54,NNW,333,11.0,16.0,17,0.00,,,0.00,Wunderground v.1.15,2013-01-03 23:15:00,
2013-01-03 15:20:00,47.2,3.2,30.54,NNW,339,11.0,11.0,16,0.00,,,0.00,Wunderground v.1.15,2013-01-03 23:20:00,
2013-01-03 15:30:00,47.1,3.1,30.55,NW,321,10.0,10.0,16,0.00,,,0.00,Wunderground v.1.15,2013-01-03 23:30:00,
2013-01-03 15:35:00,47.0,3.0,30.55,NNW,338,10.0,12.0,16,0.00,,,0.00,Wunderground v.1.15,2013-01-03 23:35:00,
2013-01-03 15:40:00,46.9,3.0,30.55,NW,314,10.0,10.0,16,0.00,,,0.00,Wunderground v.1.15,2013-01-03 23:40:00,
2013-01-03 15:45:00,47.0,3.0,30.55,NW,318,8.0,12.0,16,0.00,,,0.00,Wunderground v.1.15,2013-01-03 23:45:00,
2013-01-03 15:55:00,46.6,2.7,30.55,NW,321,9.0,18.0,16,0.00,,,0.00,Wunderground v.1.15,2013-01-03 23:55:00,
2013-01-03 16:00:00,46.4,2.6,30.55,North,358,9.0,18.0,16,0.00,,,0.00,Wunderground v.1.15,2013-01-04 00:00:00,
2013-01-03 16:05:00,46.2,2.4,30.55,NW,325,9.0,18.0,16,0.00,,,0.00,Wunderground v.1.15,2013-01-04 00:05:00,
2013-01-03 16:15:00,45.9,2.1,30.55,NNW,337,8.0,15.0,16,0.00,,,0.00,Wunderground v.1.15,2013-01-04 00:15:00,
2013-01-03 16:20:00,45.6,1.9,30.55,NW,323,8.0,15.0,16,0.00,,,0.00,Wunderground v.1.15,2013-01-04 00:20:00,
2013-01-03 16:30:00,45.0,2.7,30.55,NNW,341,7.0,7.0,17,0.00,,,0.00,Wunderground v.1.15,2013-01-04 00:30:00,
2013-01-03 16:35:00,44.6,2.4,30.56,NNW,343,6.0,8.0,17,0.00,,,0.00,Wunderground v.1.15,2013-01-04 00:35:00,
2013-01-03 16:45:00,43.7,2.9,30.56,NNW,329,5.0,14.0,18,0.00,,,0.00,Wunderground v.1.15,2013-01-04 00:45:00,
2013-01-03 16:50:00,43.3,3.7,30.56,NNW,327,4.0,4.0,19,0.00,,,0.00,Wunderground v.1.15,2013-01-04 00:50:00,
2013-01-03 17:00:00,42.6,4.3,30.56,North,356,2.0,14.0,20,0.00,,,0.00,Wunderground v.1.15,2013-01-04 01:00:00,
2013-01-03 17:05:00,42.2,3.9,30.56,North,354,2.0,14.0,20,0.00,,,0.00,Wunderground v.1.15,2013-01-04 01:05:00,
2013-01-03 17:15:00,42.0,3.8,30.56,North,353,5.0,9.0,20,0.00,,,0.00,Wunderground v.1.15,2013-01-04 01:15:00,
2013-01-03 17:20:00,42.2,3.9,30.56,North,354,6.0,6.0,20,0.00,,,0.00,Wunderground v.1.15,2013-01-04 01:20:00,
2013-01-03 17:25:00,42.2,3.9,30.56,North,350,6.0,9.0,20,0.00,,,0.00,Wunderground v.1.15,2013-01-04 01:25:00,
2013-01-03 17:35:00,42.1,3.8,30.57,North,349,5.0,11.0,20,0.00,,,0.00,Wunderground v.1.15,2013-01-04 01:35:00,
2013-01-03 17:40:00,42.1,3.8,30.57,North,352,5.0,5.0,20,0.00,,,0.00,Wunderground v.1.15,2013-01-04 01:40:00,
2013-01-03 17:45:00,41.9,3.7,30.57,NNW,348,5.0,6.0,20,0.00,,,0.00,Wunderground v.1.15,2013-01-04 01:45:00,
2013-01-03 17:50:00,41.9,3.7,30.57,North,350,5.0,5.0,20,0.00,,,0.00,Wunderground v.1.15,2013-01-04 01:50:00,
2013-01-03 18:00:00,41.6,4.5,30.57,NW,326,6.0,11.0,21,0.00,,,0.00,Wunderground v.1.15,2013-01-04 02:00:00,
2013-01-03 18:05:00,41.4,4.3,30.57,North,351,5.0,11.0,21,0.00,,,0.00,Wunderground v.1.15,2013-01-04 02:05:00,
2013-01-03 18:15:00,41.1,3.0,30.58,NNW,345,4.0,6.0,20,0.00,,,0.00,Wunderground v.1.15,2013-01-04 02:15:00,
2013-01-03 18:20:00,41.3,3.2,30.58,NNW,344,5.0,10.0,20,0.00,,,0.00,Wunderground v.1.15,2013-01-04 02:20:00,
2013-01-03 18:25:00,41.3,3.2,30.58,NNW,330,6.0,10.0,20,0.00,,,0.00,Wunderground v.1.15,2013-01-04 02:25:00,
2013-01-03 18:35:00,40.7,2.7,30.58,NNW,343,6.0,12.0,20,0.00,,,0.00,Wunderground v.1.15,2013-01-04 02:35:00,
2013-01-03 18:45:00,40.5,2.5,30.58,NNW,341,5.0,12.0,20,0.00,,,0.00,Wunderground v.1.15,2013-01-04 02:45:00,
2013-01-03 18:50:00,40.3,2.3,30.58,NNW,333,5.0,12.0,20,0.00,,,0.00,Wunderground v.1.15,2013-01-04 02:50:00,
2013-01-03 18:55:00,40.2,2.2,30.59,NNW,348,5.0,12.0,20,0.00,,,0.00,Wunderground v.1.15,2013-01-04 02:55:00,
2013-01-03 19:00:00,40.0,3.1,30.58,NNW,346,4.0,12.0,21,0.00,,,0.00,Wunderground v.1.15,2013-01-04 03:00:00,
2013-01-03 19:05:00,39.6,2.8,30.59,NNW,341,3.0,12.0,21,0.00,,,0.00,Wunderground v.1.15,2013-01-04 03:05:00,
2013-01-03 19:15:00,38.4,2.8,30.59,NNW,339,2.0,9.0,22,0.00,,,0.00,Wunderground v.1.15,2013-01-04 03:15:00,
2013-01-03 19:20:00,38.4,2.8,30.59,NNW,339,1.0,1.0,22,0.00,,,0.00,Wunderground v.1.15,2013-01-04 03:20:00,
2013-01-03 19:30:00,38.1,2.5,30.59,NNW,339,0.0,9.0,22,0.00,,,0.00,Wunderground v.1.15,2013-01-04 03:30:00,
2013-01-03 19:35:00,37.9,3.3,30.59,NNW,339,0.0,9.0,23,0.00,,,0.00,Wunderground v.1.15,2013-01-04 03:35:00,
2013-01-03 19:40:00,37.8,3.2,30.60,NNW,339,0.0,5.0,23,0.00,,,0.00,Wunderground v.1.15,2013-01-04 03:40:00,
2013-01-03 19:50:00,37.5,3.0,30.59,NNE,23,1.0,1.0,23,0.00,,,0.00,Wunderground v.1.15,2013-01-04 03:50:00,
2013-01-03 20:00:00,37.4,2.9,30.60,NNE,20,1.0,1.0,23,0.00,,,0.00,Wunderground v.1.15,2013-01-04 04:00:00,
2013-01-03 20:05:00,37.7,3.2,30.60,NNE,24,1.0,7.0,23,0.00,,,0.00,Wunderground v.1.15,2013-01-04 04:05:00,
2013-01-03 20:15:00,38.1,3.5,30.60,NNE,21,1.0,7.0,23,0.00,,,0.00,Wunderground v.1.15,2013-01-04 04:15:00,
2013-01-03 20:20:00,38.0,3.4,30.60,NNE,25,0.0,7.0,23,0.00,,,0.00,Wunderground v.1.15,2013-01-04 04:20:00,
2013-01-03 20:30:00,37.5,3.0,30.60,NNE,25,0.0,7.0,23,0.00,,,0.00,Wunderground v.1.15,2013-01-04 04:30:00,
2013-01-03 20:35:00,37.3,3.7,30.60,NNE,25,0.0,7.0,24,0.00,,,0.00,Wunderground v.1.15,2013-01-04 04:35:00,
2013-01-03 20:45:00,36.8,3.3,30.60,NNE,27,0.0,4.0,24,0.00,,,0.00,Wunderground v.1.15,2013-01-04 04:45:00,
2013-01-03 20:55:00,36.7,3.2,30.60,NNE,29,0.0,4.0,24,0.00,,,0.00,Wunderground v.1.15,2013-01-04 04:55:00,
2013-01-03 21:00:00,36.8,3.3,30.60,NNE,29,0.0,4.0,24,0.00,,,0.00,Wunderground v.1.15,2013-01-04 05:00:00,
2013-01-03 21:05:00,36.6,3.1,30.61,NNE,29,0.0,4.0,24,0.00,,,0.00,Wunderground v.1.15,2013-01-04 05:05:00,
2013-01-03 21:10:00,36.2,2.8,30.60,NNE,29,0.0,4.0,24,0.00,,,0.00,Wunderground v.1.15,2013-01-04 05:10:00,
2013-01-03 21:20:00,36.0,3.5,30.60,NNE,29,0.0,4.0,25,0.00,,,0.00,Wunderground v.1.15,2013-01-04 05:20:00,
2013-01-03 21:25:00,35.9,3.4,30.60,NNE,29,0.0,4.0,25,0.00,,,0.00,Wunderground v.1.15,2013-01-04 05:25:00,
2013-01-03 21:30:00,35.7,3.3,30.61,NNE,29,0.0,4.0,25,0.00,,,0.00,Wunderground v.1.15,2013-01-04 05:30:00,
2013-01-03 21:35:00,35.7,3.3,30.61,NNE,30,0.0,4.0,25,0.00,,,0.00,Wunderground v.1.15,2013-01-04 05:35:00,
2013-01-03 21:45:00,35.4,3.9,30.61,ENE,60,2.0,3.0,26,0.00,,,0.00,Wunderground v.1.15,2013-01-04 05:45:00,
2013-01-03 21:50:00,35.4,3.0,30.61,ENE,60,2.0,2.0,25,0.00,,,0.00,Wunderground v.1.15,2013-01-04 05:50:00,
2013-01-03 22:00:00,35.6,3.2,30.61,ENE,60,2.0,3.0,25,0.00,,,0.00,Wunderground v.1.15,2013-01-04 06:00:00,
2013-01-03 22:05:00,36.0,3.5,30.61,ENE,60,1.0,6.0,25,0.00,,,0.00,Wunderground v.1.15,2013-01-04 06:05:00,
2013-01-03 22:15:00,35.9,3.4,30.62,ENE,60,1.0,6.0,25,0.00,,,0.00,Wunderground v.1.15,2013-01-04 06:15:00,
2013-01-03 22:20:00,36.2,2.8,30.61,ENE,59,0.0,6.0,24,0.00,,,0.00,Wunderground v.1.15,2013-01-04 06:20:00,
2013-01-03 22:30:00,36.4,3.0,30.61,ENE,62,2.0,6.0,24,0.00,,,0.00,Wunderground v.1.15,2013-01-04 06:30:00,
2013-01-03 22:35:00,36.4,3.0,30.62,ENE,62,3.0,6.0,24,0.00,,,0.00,Wunderground v.1.15,2013-01-04 06:35:00,
2013-01-03 22:45:00,35.8,3.3,30.62,ENE,62,1.0,4.0,25,0.00,,,0.00,Wunderground v.1.15,2013-01-04 06:45:00,
2013-01-03 22:50:00,35.5,3.1,30.61,ENE,62,2.0,2.0,25,0.00,,,0.00,Wunderground v.1.15,2013-01-04 06:50:00,
2013-01-03 23:00:00,35.3,2.9,30.62,ENE,62,2.0,6.0,25,0.00,,,0.00,Wunderground v.1.15,2013-01-04 07:00:00,
2013-01-03 23:05:00,35.4,3.0,30.62,ENE,62,3.0,6.0,25,0.00,,,0.00,Wunderground v.1.15,2013-01-04 07:05:00,
2013-01-03 23:15:00,35.5,3.1,30.62,ENE,62,1.0,4.0,25,0.00,,,0.00,Wunderground v.1.15,2013-01-04 07:15:00,
2013-01-03 23:20:00,35.7,3.3,30.62,ENE,63,2.0,5.0,25,0.00,,,0.00,Wunderground v.1.15,2013-01-04 07:20:00,
2013-01-03 23:25:00,35.4,3.0,30.62,ENE,63,2.0,5.0,25,0.00,,,0.00,Wunderground v.1.15,2013-01-04 07:25:00,
2013-01-03 23:35:00,35.2,2.8,30.62,ENE,67,2.0,5.0,25,0.00,,,0.00,Wunderground v.1.15,2013-01-04 07:35:00,
2013-01-03 23:45:00,35.2,2.8,30.62,ENE,69,3.0,6.0,25,0.00,,,0.00,Wunderground v.1.15,2013-01-04 07:45:00,
2013-01-03 23:50:00,35.1,2.7,30.62,ENE,69,2.0,2.0,25,0.00,,,0.00,Wunderground v.1.15,2013-01-04 07:50:00,
2013-01-03 23:55:00,35.1,2.7,30.62,ENE,69,2.0,6.0,25,0.00,,,0.00,Wunderground v.1.15,2013-01-04 07:55:00,